Location: ???????
(60.3643°N, 46.5657°E)
Time: 18:18:42
(UTC+00:00)

Daily predictions for brighter satellites

Satellite Brightness Start Highest point End
(mag) Time Altitude Azimuth Time Altitude Azimuth Time Altitude Azimuth
Cosmos 2227 Rocket 2.5 13:12:37 10° SSW 13:18:09 57° ESE 13:23:43 10° NE
H-2A R/B 2.6 13:15:30 10° SE 13:19:29 54° ENE 13:23:39 10° NNW
H-2A R/B 2.8 13:15:56 10° SSE 13:19:40 83° WSW 13:23:24 10° NNW
Cosmos 1606 Rocket 4.4 13:17:35 10° N 13:21:26 29° ENE 13:25:18 10° ESE
NOSS 3-4 (A) 4.3 13:16:19 10° S 13:21:40 36° SE 13:27:25 10° ENE
NOSS 3-4 (C) 4.3 13:16:26 10° S 13:21:47 35° SE 13:27:33 10° ENE
Cosmos 1975 Rocket 3.1 13:19:13 10° S 13:23:33 66° E 13:27:52 10° NNE
Cosmos 1464 Rocket 4.3 13:17:46 10° NNW 13:23:59 77° W 13:30:16 10° S
H-2A R/B 3.5 13:21:17 10° NE 13:24:40 20° E 13:28:00 10° SE
Meteor 1-28 Rocket 3.9 13:21:26 10° N 13:25:06 54° WNW 13:28:45 10° SW
Cosmos 1707 2.7 13:21:23 10° S 13:25:10 66° E 13:29:00 10° NNE
NOSS 3-1 (A) 3.8 13:21:53 10° W 13:28:12 69° N 13:35:51 10° E
Cosmos 1674 3.5 13:24:57 10° SSE 13:28:24 32° E 13:31:52 10° NNE
SL-08 R/B 3.3 13:24:36 10° NNE 13:29:15 83° ESE 13:33:56 10° SSW
Lacrosse 5 2.5 13:25:07 10° W 13:30:06 59° S 13:35:04 10° ESE
Cosmos 1726 3.5 13:26:32 10° NNW 13:30:08 44° W 13:33:41 10° SSW
PSLV R/B 3.7 13:27:13 10° SSE 13:30:56 89° ENE 13:34:44 10° NNW
YAOGAN 1 3.9 13:28:46 10° E 13:31:56 20° NE 13:35:07 10° N
USA 281 4.2 13:27:44 10° ENE 13:33:04 28° N 13:38:25 10° NW
Cosmos 1455 Rocket 4.0 13:31:21 10° NNW 13:35:35 51° W 13:39:47 10° S
SL-24 R/B 4.3 13:31:53 10° SE 13:36:14 60° ENE 13:40:59 10° NNW
Cosmos 1603 3.9 13:30:44 10° NW 13:36:27 81° SW 13:42:11 10° SSE
Cosmos 1741 Rocket 4.2 13:31:55 10° SW 13:37:11 76° NW 13:42:30 10° NNE
PAYLOAD B 4.3 13:32:02 10° SSE 13:37:33 88° ENE 13:43:08 10° NNW
CZ-4B R/B 3.3 13:32:01 10° SSE 13:37:35 71° ENE 13:43:14 10° NNW
Timation 2 Rocket 4.3 13:31:12 10° SSW 13:38:03 80° SE 13:44:59 10° NE
Cosmos 2228 3.4 13:34:35 10° N 13:38:37 39° ENE 13:42:39 10° SE
ATLAS 2AS CENTAUR R/B 3.6 13:32:01 10° SSW 13:39:19 42° SE 13:46:28 10° ENE
NOSS 2-2 (E) 3.6 13:37:20 10° WSW 13:41:12 71° NNW 13:46:09 10° ENE
CZ-2C R/B 3.7 13:36:55 10° ESE 13:41:53 38° NE 13:47:05 10° N
Cosmos 2297 Rocket 2.2 13:36:53 10° SW 13:42:33 84° SE 13:48:16 10° NE
USA 290 4.5 13:47:18 10° N 13:48:18 11° NNE 13:49:18 10° NE
FengYun 1-2 T 4.2 13:43:23 10° SSE 13:48:56 71° ENE 13:54:34 10° NNW
Meteor 2-10 Rocket 4.1 13:43:48 10° N 13:49:07 39° ENE 13:54:15 10° SE
Cosmos 2058 Rocket 3.9 13:46:15 10° N 13:50:14 30° ENE 13:54:14 10° ESE
H-2A R/B 2.8 13:47:26 10° ESE 13:51:46 30° NE 13:56:13 10° N
Cosmos 1680 Rocket 4.2 13:48:20 10° NNW 13:53:09 34° NE 13:57:55 10° E
Helios 1A Rocket 4.1 13:50:04 10° ESE 13:53:20 23° NE 13:56:38 10° N
Cosmos 2082 3.9 13:48:32 10° SSW 13:54:08 59° ESE 13:59:45 10° NE
Cosmos 773 Rocket 3.9 13:51:01 10° NNW 13:56:14 81° ENE 14:01:24 10° SE
NOSS 2-3 (E) 4.4 13:51:07 10° WNW 13:56:20 69° N 14:03:15 10° E
Meteor 2-5 Rocket 4.3 13:52:47 10° SSE 13:57:46 35° E 14:02:44 10° NNE
Cosmos 1626 2.8 13:55:37 10° SSE 13:58:57 33° E 14:02:19 10° NNE
RESURS DK-1 3.6 13:55:39 10° SSE 13:59:00 24° ESE 14:01:34 14° ENE
ATLAS 5 CENTAUR R/B 3.3 13:56:35 10° SSE 13:59:11 16° ESE 14:01:23 12° E
Cosmos 1400 Rocket 3.6 13:56:00 10° NNW 14:00:05 57° W 14:04:06 10° S
CZ-2D R/B 3.7 13:56:42 10° SE 14:00:17 37° ENE 14:03:52 10° N
Cosmos 158 Rocket 4.4 13:55:17 10° NNW 14:00:18 43° NE 14:05:24 10° ESE
YAOGAN 6 3.6 13:57:37 10° S 14:01:06 51° W 14:04:41 10° NNW
KORONAS-FOTON 3.9 13:58:34 10° S 14:02:27 62° E 14:06:21 10° NNE
SeaSat 1 2.5 13:57:53 10° NE 14:02:52 87° ESE 14:07:50 10° SW
Cosmos 2279 Rocket 4.0 13:59:36 10° N 14:05:51 62° ENE 14:12:04 10° SSE
SL-14 R/B 4.0 14:02:26 10° SSE 14:05:54 32° E 14:09:27 10° NNE
Cosmos 1726 Rocket 3.6 14:04:53 10° N 14:09:10 52° ENE 14:13:26 10° SSE
USA 234 3.5 14:03:19 10° E 14:09:52 69° S 14:16:27 10° W
NOAA 12 4.4 14:05:09 10° S 14:10:23 72° WSW 14:15:40 10° NNW
Landsat 5 3.5 14:06:29 10° NNE 14:10:29 53° ESE 14:14:19 10° S
CZ-4B R/B 2.8 14:12:26 18° ENE 14:13:22 20° E 14:15:56 10° SE
Aureole 3 4.2 14:11:01 10° N 14:14:39 27° ENE 14:17:43 10° ESE
COSMOS 2406 3.9 14:09:18 10° NW 14:14:43 38° NNE 14:19:09 15° E
ATLAS 3B R/B 4.3 14:09:51 10° WNW 14:16:07 39° SW 14:22:36 10° S
Cosmos 2263 Rocket 2.9 14:12:32 10° S 14:17:38 35° ESE 14:21:37 16° NE
Cosmos 1634 Rocket 4.1 14:11:53 10° NNW 14:18:09 86° WSW 14:24:26 10° S
NOSS 2-2 (D) 3.7 14:14:42 10° W 14:18:34 63° N 14:22:09 18° ENE
CORIOLIS 4.5 14:14:02 10° S 14:19:26 72° WSW 14:24:51 10° NNW
NOAA 11 4.4 14:15:05 10° SSE 14:20:36 77° WSW 14:26:10 10° NNW
COSMOS 2455 4.3 14:17:52 10° SE 14:21:37 17° ESE 14:23:14 16° E
COSMO-SKYMED 1 3.5 14:23:12 14° NE 14:26:12 28° E 14:29:59 10° SSE
Cosmos 1538 Rocket 3.9 14:20:59 10° NNW 14:26:14 83° ENE 14:31:25 10° SE
HJ-1C 4.5 14:27:16 23° ENE 14:27:35 24° ENE 14:30:21 10° N
CZ-4C R/B 2.6 14:24:37 11° NNE 14:27:41 77° ESE 14:30:50 10° SSW
Cosmos 1455 2.8 14:25:51 10° N 14:29:19 33° ENE 14:32:49 10° SE
NOSS 2-3 (D) 4.4 14:24:00 10° WNW 14:29:22 74° NNE 14:35:28 14° ESE
In-Cosmos 22 4.4 14:24:13 10° SSW 14:29:38 70° WNW 14:34:59 10° NNE
SMAP 4.0 14:25:07 10° S 14:29:40 52° W 14:34:16 10° NNW
Cosmos 1943 4.4 14:24:51 10° NW 14:30:17 47° WSW 14:35:41 10° S
Cosmos 2112 Rocket 4.4 14:25:25 10° NNW 14:30:30 44° NE 14:35:08 12° ESE
Genesis I 3.5 14:27:59 10° W 14:31:51 59° NNW 14:34:09 23° NE
Cosmos 1536 Rocket 3.5 14:27:58 10° SSW 14:32:22 90° SSW 14:36:52 10° NNE
Cosmos 1300 2.9 14:29:09 10° NNW 14:32:59 73° W 14:36:48 10° S
MOS 1 Rocket 4.0 14:33:10 19° NE 14:35:20 28° E 14:39:02 10° SSE
EP 3 4.3 14:33:33 10° W 14:35:21 37° N 14:35:21 37° N
Meteor 1-24 Rocket 3.8 14:31:16 10° S 14:36:23 49° E 14:41:29 10° NNE
ARGOS 3.4 14:32:12 10° SE 14:37:15 44° ENE 14:42:21 10° NNW
Cosmos 2344 4.0 14:29:17 10° WNW 14:37:26 83° NNE 14:48:15 10° ESE
Cosmos 1939 Rocket 3.0 14:34:20 10° SSE 14:38:28 81° WSW 14:42:35 10° NNW
Okean-O 2.7 14:34:11 10° SE 14:38:30 54° ENE 14:42:51 10° NNW
Cosmos 489 Rocket 4.5 14:32:44 10° NNW 14:39:10 73° NE 14:45:31 10° SE
Feng Yun 1-1 Rocket 4.2 14:34:23 10° SSE 14:39:51 88° WSW 14:45:30 10° NNW
Cosmos 2082 Rocket 3.0 14:38:02 10° NW 14:43:19 35° NNE 14:46:06 23° ENE
Cosmos 1354 Rocket 4.2 14:38:20 10° S 14:43:30 52° ESE 14:47:16 18° NE
Okean O Rocket 2.7 14:39:20 10° S 14:43:39 49° W 14:47:59 10° NNW
CSL-04 Debris 4.3 14:38:49 10° SE 14:43:59 50° ENE 14:49:11 10° NNW
Cosmos 1833 Rocket 3.1 14:38:38 10° NW 14:43:59 42° NNE 14:47:06 23° E
Cosmos 909 Rocket 4.4 14:38:15 10° W 14:44:31 54° N 14:48:38 22° ENE
Cosmos 1315 Rocket 3.7 14:42:00 10° NNW 14:45:51 52° W 14:49:44 10° S
Cosmos 2219 3.8 14:41:01 10° WSW 14:46:40 54° NW 14:51:14 16° NE
Aureole 1 4.1 14:43:23 10° NNW 14:46:46 67° NE 14:48:38 21° SE
Cosmos 968 Rocket 3.4 14:42:25 10° SSW 14:47:33 89° ESE 14:51:45 16° NNE
Cosmos 1025 Rocket 3.8 14:43:29 10° SSW 14:47:45 52° WNW 14:52:04 10° N
NOSS 3-1 (C) 3.8 14:41:04 10° WNW 14:47:48 88° NNE 14:55:14 13° ESE
CZ-4 R/B 1.3 14:44:20 10° SSE 14:48:23 64° ENE 14:52:22 10° NNW
ADEOS Rocket 3.8 14:44:56 10° NNE 14:51:11 50° WNW 14:56:49 10° SW
NOSS 2-3 (C) 4.4 14:46:13 10° WNW 14:51:43 82° NNE 14:57:14 18° ESE
Cosmos 1486 Rocket 4.0 14:47:52 10° SSW 14:53:08 89° WNW 14:57:19 16° NNE
ERS-2 3.5 14:54:27 23° SE 14:54:27 23° SE 14:56:31 10° SSE
Tsikada Rocket 4.2 14:48:10 10° SSW 14:54:29 73° WNW 15:00:45 10° NNE
CZ-4 R/B 4.4 14:50:54 10° SSE 14:55:03 86° WSW 14:59:16 10° NNW
Cosmos 2227 4.3 14:52:06 10° SSW 14:57:37 57° ESE 15:01:00 24° NE
SL-16 R/B 4.5 14:54:37 10° NNE 14:59:00 21° NNW 15:03:23 10° W
Cosmos 1606 Rocket 4.3 14:55:17 10° NNW 14:59:35 56° W 15:03:53 10° S
CZ-4C R/B 2.3 14:54:24 10° SW 14:59:46 71° SE 15:03:29 26° ENE
SJ-11-01 4.2 14:56:27 10° SSE 15:01:07 66° ENE 15:05:46 10° NNW
H-2A R/B 2.1 14:56:41 10° NNE 15:01:14 85° WNW 15:05:40 10° SSW
Cosmos 2227 Rocket 2.8 14:56:49 10° WSW 15:02:22 52° NW 15:06:31 18° NE
IRS-1C Rocket 4.2 14:58:01 10° SSE 15:03:17 79° WSW 15:08:36 10° NNW
Timation 1 Rocket 4.4 14:57:14 10° SW 15:03:18 85° NW 15:07:31 21° NE
Cosmos 1674 4.1 15:00:14 10° SW 15:03:52 39° WNW 15:07:32 10° N
USA 229 DEB 3.8 14:57:10 10° WNW 15:04:13 86° NNE 15:09:41 20° ESE
USA 229 3.8 14:57:17 10° WNW 15:04:19 86° NNE 15:09:44 21° ESE
NOSS 2-2 (C) 3.9 15:02:30 10° W 15:06:31 60° N 15:08:32 33° ENE
YAOGAN 1 2.4 15:03:10 10° SSE 15:07:30 81° ENE 15:11:52 10° NNW
Cosmos 1892 Rocket 3.6 15:04:16 10° S 15:08:30 54° E 15:10:52 25° NNE
NOSS 3-4 (A) 3.4 15:05:53 10° WSW 15:11:58 86° SSE 15:15:33 29° ENE
NOSS 3-4 (C) 3.4 15:06:00 10° WSW 15:12:04 85° SSE 15:15:39 29° ENE
Lacrosse 5 3.2 15:07:58 10° W 15:12:34 36° SSW 15:17:00 11° SE
Cosmos 1844 Rocket 3.8 15:08:15 10° SSE 15:12:01 24° ESE 15:12:01 24° ESE
Nadezhda 4 Rocket 4.1 15:07:33 10° SSE 15:13:32 50° E 15:19:28 10° NNE
Cosmos-2242 4.2 15:09:49 10° N 15:12:16 25° NNE 15:12:16 25° NNE
Cosmos 1812 Rocket 3.7 15:09:56 10° N 15:14:15 48° ENE 15:15:27 37° ESE
SKYMED 2 3.5 15:11:45 22° NNE 15:14:33 64° ESE 15:18:52 10° S
USA 281 3.6 15:13:42 29° E 15:16:26 43° NE 15:22:33 10° NW
CZ-3B R/B 3.5 15:15:48 10° WSW 15:17:48 22° S 15:20:20 14° SE
NOSS 3-1 (A) 3.8 15:12:53 10° WNW 15:19:40 88° NNE 15:24:45 25° ESE
Cosmos 1503 Rocket 4.0 15:15:30 10° SSW 15:20:53 89° WNW 15:24:20 23° NNE
CZ-2C R/B 3.7 15:16:13 10° S 15:21:33 63° WSW 15:27:12 10° NNW
USA 290 4.2 15:20:50 10° NNW 15:22:05 19° N 15:22:05 19° N
Meteor 2-1 Rocket 4.2 15:20:08 10° NNW 15:25:48 85° WSW 15:31:22 10° SSE
Cosmos 2297 Rocket 3.2 15:21:50 10° W 15:27:10 40° NNW 15:30:28 21° NNE
Ariane Rocket 3.3 15:27:03 41° ENE 15:27:23 41° ENE 15:32:10 10° N
Cosmos 923 Rocket 4.2 15:22:36 10° NW 15:27:59 77° WSW 15:33:18 10° SSE
Helios 1A Rocket 3.0 15:23:57 10° SSE 15:28:06 80° WSW 15:32:18 10° NNW
Resurs 01 Rocket 3.6 15:30:23 16° NNE 15:30:23 16° NNE 15:31:46 10° N
Cosmos 2058 Rocket 3.7 15:24:08 10° NNW 15:28:33 57° W 15:32:58 10° S
SJ 16-02 3.3 15:25:12 10° SSE 15:26:15 16° SSE 15:26:15 16° SSE
ATLAS 2AS CENTAUR R/B 3.0 15:21:54 10° WSW 15:29:53 86° SSE 15:33:58 32° ENE
H-2A R/B 2.1 15:25:49 10° SSE 15:30:50 77° WSW 15:36:03 10° NNW
Meteor 2-10 Rocket 4.3 15:25:57 10° NNW 15:31:30 58° W 15:36:48 10° S
NOSS 2-2 (E) 3.9 15:27:55 10° WNW 15:32:11 64° N 15:33:32 46° ENE
Cosmos 1626 3.6 15:30:44 10° SW 15:34:10 36° WNW 15:37:16 12° N
Cosmos 1680 Rocket 3.5 15:30:32 10° NW 15:35:50 82° WSW 15:39:50 18° SSE
RESURS DK-1 2.4 15:32:30 10° SW 15:36:40 78° NW 15:37:29 56° NNE
CSL-04 Rocket 3.6 15:31:15 10° SSE 15:36:41 89° WSW 15:42:15 10° NNW
Cosmos 1553 Rocket 4.2 15:31:52 10° N 15:38:09 52° ENE 15:40:32 35° ESE
Cosmos 2082 4.4 15:32:52 10° WSW 15:38:27 51° NW 15:41:38 25° NNE
Meteor 2-13 Rocket 4.3 15:33:40 10° S 15:39:42 65° E 15:45:49 10° NNE
SeaSat 1 3.6 15:37:29 21° NNE 15:40:06 36° NNW 15:44:36 10° W
Meteor 2-5 Rocket 4.2 15:35:27 10° SSW 15:40:57 61° WNW 15:46:28 10° NNE
Elektron 1 4.4 15:39:21 10° WSW 15:41:48 53° WSW 15:41:48 53° WSW
ATLAS 5 CENTAUR R/B 1.7 15:38:35 10° SW 15:42:46 58° SE 15:42:55 58° SE
MOS 1 4.4 15:43:53 46° ESE 15:45:06 55° ENE 15:50:41 10° NNW
Okean 1-7 Rocket 3.5 15:41:07 10° S 15:45:41 78° E 15:46:53 48° NNE
CZ-4B R/B 1.9 15:45:32 54° NW 15:45:53 58° WNW 15:49:13 10° SSW
USA 234 3.7 15:50:09 29° SE 15:53:27 56° SSW 15:59:54 10° W
Aureole 3 4.2 15:52:50 10° NNW 15:56:48 45° W 15:59:26 15° SSW
SL-08 RB Rocket 3.7 15:55:49 35° S 15:57:41 81° WSW 16:02:14 10° NNW
S3M 4.1 15:53:18 10° N 15:59:14 50° ENE 15:59:14 50° ENE
COSMOS 2406 3.1 15:53:53 10° NW 15:59:44 86° NE 16:01:15 52° SE
PSLV R/B 4.3 16:01:28 58° SSW 16:01:28 58° SSW 16:04:53 10° SSW
Cosmos 2263 Rocket 2.3 15:55:35 10° SW 16:01:16 74° NW 16:03:19 41° NNE
COSMO-SKYMED 1 3.1 16:00:24 26° N 16:02:41 58° WNW 16:06:57 10° SW
MetOp-A 4.0 16:02:56 55° SE 16:04:09 79° ENE 16:09:33 10° NNW
Cosmos 1455 3.6 16:01:28 10° NNW 16:05:00 38° W 16:08:33 10° SSW
COSMOS 2455 2.9 16:00:33 10° SSW 16:06:25 56° SE 16:06:25 56° SE
Iridium 4 Rocket 3.7 16:00:33 10° N 16:06:28 89° W 16:12:00 10° S
NOSS 2-2 (D) 3.8 16:05:16 10° WNW 16:09:33 70° NNE 16:09:33 70° NNE
Genesis I 4.4 16:06:07 10° WNW 16:09:01 38° NNW 16:09:01 38° NNW
MOS 1 Rocket 3.6 16:12:27 36° N 16:13:58 57° WNW 16:18:10 10° SW
Okean-O 4.4 16:11:15 10° SSW 16:15:13 32° W 16:19:14 10° NNW
Cosmos 2195 Rocket 4.4 16:09:53 10° S 16:16:11 71° E 16:22:31 10° NNE
ARGOS 3.9 16:12:18 10° S 16:17:32 51° W 16:22:48 10° NNW
Meteor 2-15 4.4 16:13:17 10° NNW 16:19:29 88° WSW 16:22:20 35° S
APEX 4.4 16:14:05 10° SSW 16:20:52 67° SE 16:20:52 67° SE
Cosmos 1777 Rocket 4.0 16:15:57 10° SW 16:21:15 78° NW 16:21:50 68° N
CZ-4 R/B 3.8 16:20:27 10° SW 16:23:46 23° W 16:27:03 10° NW
Cosmos 1627 Rocket 4.3 16:17:51 10° S 16:24:01 72° E 16:30:18 10° NNE
ERS-2 4.2 16:29:01 23° SW 16:29:01 23° SW 16:30:36 10° SW
IRS-1A Rocket 4.3 16:26:56 59° SSE 16:28:11 86° WSW 16:34:07 10° NNW
Cosmos 2082 Rocket 2.1 16:22:26 10° NW 16:27:57 75° NNE 16:27:57 75° NNE
Cosmos 1833 Rocket 2.6 16:22:45 10° NW 16:28:23 77° SW 16:28:49 72° S
H-2A R/B 4.4 16:33:20 11° N 16:36:41 22° NW 16:40:06 10° W
Cosmos 1092 Rocket 3.9 16:33:49 10° SSW 16:40:02 83° WNW 16:46:15 10° NNE
Terra 4.3 16:48:21 12° N 16:48:21 12° N 16:48:45 10° N
Cosmos 909 Rocket 4.1 16:39:20 10° WNW 16:45:32 67° NNE 16:45:32 67° NNE
Meteor 1-21 Rocket 4.4 16:41:01 10° SSW 16:46:33 69° WNW 16:47:01 65° NW
Cosmos 2227 Rocket 3.5 16:42:38 10° WNW 16:47:37 30° N 16:48:20 29° N
CZ-4C R/B 2.5 16:42:41 10° W 16:48:30 71° N 16:48:40 70° N
Lacrosse 5 4.4 16:51:56 10° W 16:54:24 14° SW 16:56:14 11° SSW
USA 229 DEB 4.5 16:48:09 10° WNW 16:54:59 49° SW 16:57:09 39° S
USA 229 4.5 16:48:16 10° WNW 16:55:05 49° SW 16:57:12 39° S
Cosmos 1844 Rocket 3.7 16:50:21 10° SW 16:53:43 38° SSW 16:53:43 38° SSW
USA 281 3.1 17:00:34 82° SW 17:00:38 82° WSW 17:07:15 10° NW
NOSS 3-4 (A) 3.7 16:56:59 10° W 17:02:59 68° NNW 17:02:59 68° NNW
NOSS 3-4 (C) 3.7 16:57:05 10° W 17:03:06 68° NNW 17:03:06 68° NNW
Resurs 01 Rocket 4.1 17:07:57 16° NNW 17:07:57 16° NNW 17:08:51 10° NNW
Ariane Rocket 3.9 17:07:15 45° WNW 17:07:15 45° WNW 17:11:20 10° NNW
SJ 16-02 4.0 17:02:55 10° SW 17:03:17 12° SW 17:03:17 12° SW
Cosmos 2297 Rocket 3.7 17:07:44 10° WNW 17:12:16 28° N 17:12:16 28° N
SeaSat 1 4.4 17:17:16 23° NNW 17:17:16 23° NNW 17:20:36 10° WNW
ATLAS 2AS CENTAUR R/B 3.0 17:13:28 10° W 17:21:22 70° N 17:21:24 70° N
ATLAS 5 CENTAUR R/B 3.9 17:22:55 10° W 17:24:28 22° W 17:24:28 22° W
USA 234 4.5 17:37:30 30° SW 17:37:30 30° SW 17:43:07 10° W
Cosmos 2263 Rocket 3.7 17:40:53 10° W 17:45:02 32° NW 17:45:02 32° NW
COSMOS 2455 4.3 17:46:25 10° WSW 17:49:36 32° W 17:49:36 32° W
Cosmos 2082 Rocket 4.1 18:06:51 10° NW 18:09:49 26° WNW 18:09:49 26° WNW
Cosmos 2227 Rocket 4.5 18:28:09 10° NW 18:30:09 20° NNW 18:30:09 20° NNW
CZ-4C R/B 4.2 18:31:21 10° WNW 18:33:52 27° WNW 18:33:52 27° WNW
ATLAS 2AS CENTAUR R/B 4.4 19:05:08 10° WNW 19:08:51 31° WNW 19:08:51 31° WNW
